Regional Weather Roundup
Issued by NWS

Home | Current Version | Previous Version | Text Only | Print | Product List | Glossary On
Versions: 1 2 3 4 5 6 7 8 9 10 11 12 13 14 15 16 17 18 19 20 21 22 23 24 25 26 27
000
ASUS45 KREV 160710
RWRNV
NEVADA REGIONAL WEATHER ROUNDUP
NATIONAL WEATHER SERVICE RENO NV
1100 PM PST MON JAN 15 2018

NOTE: "FAIR" INDICATES FEW OR NO CLOUDS BELOW 12,000 FEET WITH NO
SIGNIFICANT WEATHER AND/OR OBSTRUCTIONS TO VISIBILITY.

NVZ001-003-004-160800-
WESTERN NEVADA

CITY           SKY/WX    TMP DP  RH WIND       PRES   REMARKS
RENO           MOCLDY    38  32  79 CALM      30.18S
CARSON CITY    FAIR      36  30  80 CALM      30.21S
MINDEN         FAIR      30  30 100 SE6       30.21S
SLIDE MTN        N/A     32  19  59 SW29        N/A
PYRAMID LAKE     N/A     43 N/A N/A W5          N/A
FALLON         NOT AVBL
LOVELOCK       MOCLDY    31  28  89 NE6       30.18R
HAWTHORNE      CLEAR     37  27  65 VRB3      30.17R
$$

NVZ002-CAZ072-073-160800-
NORTHERN AND CENTRAL SIERRA

CITY           SKY/WX    TMP DP  RH WIND       PRES   REMARKS
S. LAKE TAHOE  PTCLDY    32  25  75 VRB3      30.22S
TRUCKEE        MOCLDY    41  23  48 CALM      30.22S
SQUAW VLY 8000   N/A     36  23  60 S9          N/A
SUSANVILLE     CLEAR     34  32  93 W3        30.17F
BLUE CANYON    MOCLDY    47  27  45 SE8       30.21S
MAMMOTH LAKES  FAIR      35  18  49 CALM      30.28S
$$

NVZ030-031-036-160800-
NORTHERN NEVADA

CITY           SKY/WX    TMP DP  RH WIND       PRES   REMARKS
ELKO           MOCLDY    31  26  82 N3        30.23S
WINNEMUCCA     MOCLDY    41  31  67 NE7       30.17R
WENDOVER       PTCLDY    29  23  78 CALM      30.31F
$$

NVZ035-037-160800-
CENTRAL NEVADA

CITY           SKY/WX    TMP DP  RH WIND       PRES   REMARKS
ELY            PTCLDY    22  18  85 S9        30.28S
$$

NVZ013-014-160800-
SOUTH CENTRAL NEVADA

CITY           SKY/WX    TMP DP  RH WIND       PRES   REMARKS
TONOPAH        MOCLDY    38  30  73 N9        30.22S
$$

NVZ017-020-022-160800-
SOUTHERN NEVADA

CITY           SKY/WX    TMP DP  RH WIND       PRES   REMARKS
LAS VEGAS      CLOUDY    56  42  59 CALM      30.14S
N. LAS VEGAS   CLOUDY    54  41  61 CALM      30.14S
NELLIS AFB     CLOUDY    53  41  65 CALM      30.15S
HENDERSON      CLOUDY    52  39  61 S5        30.17S
MERCURY        NOT AVBL
$$




USA.gov is the U.S. government's official web portal to all federal, state and local government web resources and services.